Bad Axe, MI

2:40 PM EST on December 18, 2017 (GMT -0500)
Huron County Memorial

Weather History for KBAX - December, 2012

Change the Weather History Date:

Monday, December 17, 2012

  Actual Average (KP58) Record (KP58)
Temperature  
Mean Temperature 34 °F -  
Max Temperature 41 °F 32 °F 51 °F (2006)
Min Temperature 27 °F 23 °F 12 °F (2004)
Degree Days  
Heating Degree Days 31    
Moisture  
Dew Point 35 °F    
Average Humidity 89    
Maximum Humidity 98    
Minimum Humidity 77    
Precipitation  
Precipitation 0.00 in - - ()
Sea Level Pressure  
Sea Level Pressure 29.66 in    
Wind  
Wind Speed 7 mph (SW)    
Max Wind Speed 14 mph    
Max Gust Speed 17 mph    
Visibility 9 miles    
Events      
Averages and records for this station are not official NWS values.
T = Trace of Precipitation, MM = Missing Value Source: NWS Daily Summary

Daily Weather History Graph

Daily Weather History Graph

Search for Another Location

Airport or City:

Trip Planner

Search our weather history database for the weather conditions in past years. The results will help you decide how hot, cold, wet, or windy it might be!

Date:

Astronomy

Dec. 17, 2012 Rise Set
Actual Time 8:00 AM EST 4:56 PM EST
Civil Twilight 7:27 AM EST 5:29 PM EST
Nautical Twilight 6:51 AM EST 6:05 PM EST
Astronomical Twilight 6:16 AM EST 6:40 PM EST
Moon 11:00 AM EST (12/17) 10:25 PM EST (12/17)
Length of Visible Light 10h 01m
Length of Day
8h 55m
Waxing Crescent, 24% of the Moon is Illuminated
Dec 17
Waxing Crescent
Dec 20
First Quarter
Dec 28
Full
Jan 4
Last Quarter
Jan 11
New

Hourly Weather History & Observations

Time (EST) Temp. Windchill Dew Point Humidity Pressure Visibility Wind Dir Wind Speed Gust Speed Precip Events Conditions
12:14 AM 41.4 °F 35.7 °F 39.6 °F 93% 29.62 in 10.0 mi WSW 9.2 mph - N/A   Overcast
12:34 AM 41.9 °F 36.3 °F 40.1 °F 93% 29.62 in 10.0 mi WSW 9.2 mph - N/A   Overcast
12:54 AM 41.9 °F 36.9 °F 40.1 °F 93% 29.62 in 10.0 mi SW 8.1 mph - N/A   Overcast
1:14 AM 41.9 °F 35.9 °F 40.1 °F 93% 29.62 in 10.0 mi SW 10.4 mph - N/A   Overcast
1:34 AM 41.9 °F 36.3 °F 40.1 °F 93% 29.62 in 10.0 mi SW 9.2 mph - N/A   Overcast
1:54 AM 41.9 °F 36.3 °F 40.1 °F 93% 29.62 in 10.0 mi WSW 9.2 mph - N/A   Overcast
2:14 AM 41.9 °F 35.4 °F 40.1 °F 93% 29.62 in 10.0 mi WSW 11.5 mph - N/A   Overcast
2:34 AM 41.5 °F 35.4 °F 39.7 °F 93% 29.63 in 10.0 mi WSW 10.4 mph - N/A   Overcast
2:54 AM 41.4 °F 36.2 °F 39.7 °F 94% 29.64 in 10.0 mi WSW 8.1 mph - N/A   Overcast
3:14 AM 41.2 °F 35.5 °F 39.7 °F 95% 29.64 in 10.0 mi WSW 9.2 mph - N/A   Overcast
3:34 AM 41.0 °F 34.7 °F 39.6 °F 95% 29.64 in 10.0 mi WSW 10.4 mph - N/A   Overcast
3:54 AM 41.0 °F 34.3 °F 39.2 °F 93% 29.64 in 10.0 mi WSW 11.5 mph - N/A   Overcast
4:15 AM 40.6 °F 34.3 °F 39.2 °F 95% 29.65 in 10.0 mi West 10.4 mph - N/A   Overcast
4:34 AM 40.3 °F 32.6 °F 38.5 °F 93% 29.65 in 10.0 mi West 13.8 mph 17.3 mph N/A   Overcast
4:54 AM 40.1 °F 34.1 °F 38.3 °F 93% 29.65 in 10.0 mi West 9.2 mph 16.1 mph N/A   Overcast
5:15 AM 40.1 °F 34.1 °F 37.8 °F 91% 29.65 in 10.0 mi WSW 9.2 mph - N/A   Overcast
5:34 AM 39.9 °F 34.5 °F 37.6 °F 91% 29.66 in 10.0 mi West 8.1 mph - N/A   Overcast
5:54 AM 39.7 °F 33.7 °F 37.4 °F 91% 29.66 in 10.0 mi West 9.2 mph - N/A   Overcast
6:15 AM 39.6 °F 35.4 °F 37.2 °F 91% 29.66 in 10.0 mi WSW 5.8 mph - N/A   Overcast
6:34 AM 39.6 °F 34.7 °F 37.0 °F 91% 29.67 in 10.0 mi WSW 6.9 mph - N/A   Overcast
6:55 AM 39.6 °F 34.0 °F 37.0 °F 91% 29.68 in 10.0 mi WSW 8.1 mph - N/A   Overcast
7:14 AM 39.6 °F 35.4 °F 37.0 °F 91% 29.69 in 10.0 mi WSW 5.8 mph - N/A   Overcast
7:34 AM 39.2 °F 34.2 °F 36.7 °F 91% 29.70 in 10.0 mi SW 6.9 mph - N/A   Overcast
7:55 AM 39.2 °F 35.0 °F 36.7 °F 91% 29.70 in 10.0 mi SW 5.8 mph - N/A   Overcast
8:14 AM 39.2 °F 32.0 °F 36.5 °F 90% 29.70 in 10.0 mi WSW 11.5 mph - N/A   Overcast
8:34 AM 39.2 °F 32.5 °F 35.8 °F 88% 29.70 in 10.0 mi WSW 10.4 mph - N/A   Overcast
8:55 AM 39.2 °F 35.0 °F 35.8 °F 88% 29.70 in 10.0 mi WSW 5.8 mph - N/A   Overcast
9:14 AM 39.2 °F 33.6 °F 35.8 °F 88% 29.70 in 10.0 mi WSW 8.1 mph - N/A   Overcast
9:34 AM 39.2 °F 33.0 °F 35.6 °F 87% 29.71 in 10.0 mi WSW 9.2 mph - N/A   Overcast
9:55 AM 39.2 °F 33.6 °F 35.6 °F 87% 29.71 in 10.0 mi WSW 8.1 mph - N/A   Overcast
10:14 AM 39.2 °F 33.0 °F 35.6 °F 87% 29.71 in 10.0 mi WSW 9.2 mph - N/A   Overcast
10:35 AM 39.2 °F 34.2 °F 35.1 °F 85% 29.70 in 10.0 mi SW 6.9 mph - N/A   Overcast
10:54 AM 39.2 °F 32.5 °F 35.1 °F 85% 29.70 in 10.0 mi SW 10.4 mph - N/A   Overcast
11:14 AM 39.2 °F 33.6 °F 35.1 °F 85% 29.70 in 10.0 mi SW 8.1 mph - N/A   Overcast
11:35 AM 39.2 °F 34.2 °F 35.2 °F 86% 29.69 in 10.0 mi SW 6.9 mph - N/A   Overcast
11:54 AM 39.2 °F 33.6 °F 34.7 °F 84% 29.68 in 10.0 mi SW 8.1 mph - N/A   Overcast
12:14 PM 39.2 °F 33.6 °F 34.7 °F 84% 29.67 in 10.0 mi SSW 8.1 mph - N/A   Overcast
12:35 PM 39.2 °F 34.2 °F 34.7 °F 84% 29.67 in 10.0 mi SSW 6.9 mph - N/A   Overcast
12:54 PM 39.4 °F 34.5 °F 34.7 °F 83% 29.66 in 10.0 mi SSW 6.9 mph - N/A   Overcast
1:14 PM 39.4 °F 34.5 °F 34.2 °F 82% 29.66 in 10.0 mi SSW 6.9 mph - N/A   Overcast
1:35 PM 39.6 °F 34.7 °F 34.5 °F 82% 29.65 in 10.0 mi SSW 6.9 mph - N/A   Overcast
1:54 PM 39.4 °F 35.2 °F 33.8 °F 80% 29.65 in 10.0 mi SW 5.8 mph - N/A   Overcast
2:14 PM 39.6 °F 35.4 °F 34.0 °F 80% 29.65 in 10.0 mi SSW 5.8 mph - N/A   Overcast
2:35 PM 39.7 °F 35.6 °F 34.3 °F 81% 29.65 in 10.0 mi SW 5.8 mph - N/A   Overcast
2:54 PM 39.7 °F 37.6 °F 33.3 °F 78% 29.65 in 10.0 mi WSW 3.5 mph - N/A   Overcast
3:15 PM 39.6 °F 35.4 °F 33.8 °F 80% 29.65 in 10.0 mi SW 5.8 mph - N/A   Overcast
3:35 PM 39.6 °F 37.4 °F 33.8 °F 80% 29.65 in 10.0 mi WSW 3.5 mph - N/A   Overcast
3:54 PM 39.6 °F 36.3 °F 33.4 °F 79% 29.66 in 10.0 mi SSW 4.6 mph - N/A   Overcast
4:15 PM 39.2 °F 37.0 °F 32.9 °F 78% 29.66 in 10.0 mi SW 3.5 mph - N/A   Overcast
4:35 PM 39.2 °F 37.0 °F 32.5 °F 77% 29.67 in 10.0 mi WSW 3.5 mph - N/A   Overcast
4:54 PM 39.0 °F - 32.5 °F 78% 29.67 in 10.0 mi Calm Calm - N/A   Overcast
7:34 PM 37.2 °F - 33.1 °F 85% 29.65 in 10.0 mi Calm Calm - N/A   Scattered Clouds
7:55 PM 33.8 °F - 31.1 °F 90% 29.65 in 10.0 mi Calm Calm - N/A   Clear
8:15 PM 31.8 °F - 29.5 °F 91% 29.65 in 10.0 mi Calm Calm - N/A   Clear
8:35 PM 30.4 °F - 28.2 °F 92% 29.65 in 10.0 mi Calm Calm - N/A   Scattered Clouds
8:55 PM 30.2 °F - 28.4 °F 93% 29.64 in 5.0 mi Calm Calm - N/A   Clear
9:14 PM 29.7 °F - 28.2 °F 94% 29.64 in 5.0 mi Calm Calm - N/A   Clear
9:35 PM 28.9 °F - 27.7 °F 95% 29.63 in 3.0 mi Calm Calm - N/A   Clear
9:54 PM 29.3 °F - 28.4 °F 96% 29.63 in 2.0 mi Calm Calm - N/A   Clear
10:15 PM 27.9 °F - 26.8 °F 96% 29.62 in 1.8 mi Calm Calm - N/A   Mist
10:35 PM 27.7 °F - 26.8 °F 96% 29.63 in 4.0 mi Calm Calm - N/A   Mostly Cloudy
10:54 PM 28.2 °F - 27.3 °F 96% 29.64 in 7.0 mi Calm Calm - N/A   Overcast
11:14 PM 29.3 °F - 28.6 °F 97% 29.63 in 5.0 mi Calm Calm - N/A   Overcast
11:34 PM 30.7 °F - 30.0 °F 97% 29.63 in 7.0 mi Calm Calm - N/A   Overcast
11:54 PM 31.5 °F - 30.9 °F 98% 29.63 in 7.0 mi Calm Calm - N/A   Overcast